Location: Milevsko
(49.4500°N, 14.3670°E)
Time: 20:55:10
(UTC+01:00)

ISS - Pass Details

Date: 17 July 2018
Orbit: 402 x 409 km, 51.6° (Epoch: 13 November)

Event Time Altitude Azimuth Distance (km) Brightness Sun altitude
Exits shadow 01:54:24 19° 272° (W) 1,071 -1.8 -18.6°
Drops below altitude 10° 01:59:59 10° 73° (ENE) 1,494 -0.6 -18.4°
Enters shadow 03:06:42 -48° 275° (W) 10,057 3.2 -14.6°
Maximum altitude 03:33:29 66° 11° (N) 459 -3.4 -12.4°
